Weather reports worldwide

Advertisment
Neum, Bosnia/Herzegovina (14657): temperature & dewpoint: 22.05.2017 20:00:00 - 28.05.2017 20:00:00 (CEST)Neum, Bosnia/Herzegovina (14657): wind speed: 22.05.2017 20:00:00 - 28.05.2017 20:00:00 (CEST)Neum, Bosnia/Herzegovina (14657): wind direction: 22.05.2017 20:00:00 - 28.05.2017 20:00:00 (CEST)Neum, Bosnia/Herzegovina (14657): reduced air pressure: 22.05.2017 20:00:00 - 28.05.2017 20:00:00 (CEST)
Date & Time tt [°C] td [°C] ff [km/h] ff [kn] dd ppp [hPa]
28.05.2017 20:00:00 25,5 11,2 4 2 SSE 1016,7
28.05.2017 19:00:00 25,4 11,4 4 2 W 1016,2
28.05.2017 18:00:00 26,2 10,3 7 4 W 1015,9
28.05.2017 17:00:00 28,2 8,1 4 2 WNW 1016,1
28.05.2017 16:00:00 28,5 7,4 7 4 W 1016,2
28.05.2017 15:00:00 29,1 7,7 4 2 ENE 1016,9
28.05.2017 14:00:00 28,8 7,9 4 2 NNE 1017,2
28.05.2017 13:00:00 28,0 7,8 4 2 ENE 1017,5
28.05.2017 12:00:00 26,9 7,8 4 2 NE 1017,8
28.05.2017 11:00:00 24,6 9,1 4 2 NE 1018,0
28.05.2017 10:00:00 23,5 8,7 4 2 SSE 1018,1
28.05.2017 09:00:00 21,7 9,5 4 2 WSW 1018,4
28.05.2017 08:00:00 20,6 8,4 4 2 NNW 1018,1
28.05.2017 07:00:00 18,2 9,3 7 4 N 1018,1
28.05.2017 06:00:00 18,0 8,4 7 4 NE 1017,7
28.05.2017 05:00:00 18,7 8,6 7 4 N 1017,5
28.05.2017 04:00:00 18,6 8,8 4 2 NNE 1017,4
28.05.2017 03:00:00 19,7 8,8 7 4 N 1017,4
28.05.2017 02:00:00 19,7 9,3 7 4 NNW 1017,7
28.05.2017 01:00:00 20,9 9,0 7 4 NNW 1017,7
28.05.2017 00:00:00 22,1 8,6 4 2 N 1017,4
27.05.2017 23:00:00 21,7 8,6 0 0 NE 1017,0
27.05.2017 22:00:00 22,4 8,0 0 0 E 1016,4
27.05.2017 21:00:00 24,0 8,2 4 2 NNE 1015,2
27.05.2017 20:00:00 24,9 10,5 7 4 WNW 1014,3
27.05.2017 19:00:00 26,2 9,9 4 2 SSW 1013,8
27.05.2017 18:00:00 24,5 11,9 4 2 W 1013,7
27.05.2017 17:00:00 24,6 12,7 4 2 W 1013,6
27.05.2017 16:00:00 28,3 8,6 4 2 NW 1013,6
27.05.2017 15:00:00 26,5 8,6 7 4 WNW 1014,1
27.05.2017 14:00:00 25,7 8,1 4 2 WNW 1014,5
27.05.2017 13:00:00 26,0 7,5 7 4 NW 1014,7
27.05.2017 12:00:00 24,8 8,3 11 6 NW 1014,9
27.05.2017 11:00:00 23,5 9,4 7 4 WNW 1015,0
27.05.2017 10:00:00 22,3 9,1 4 2 W 1014,9
27.05.2017 09:00:00 20,4 10,0 4 2 S 1015,2
27.05.2017 08:00:00 18,3 10,0 0 0 SE 1015,1
27.05.2017 07:00:00 17,6 9,8 7 4 NNW 1014,7
27.05.2017 06:00:00 16,9 9,5 7 4 NNW 1014,5
27.05.2017 05:00:00 17,3 9,6 4 2 N 1014,2
27.05.2017 04:00:00 17,6 9,4 7 4 N 1014,0
27.05.2017 03:00:00 17,9 9,5 7 4 N 1014,0
27.05.2017 02:00:00 18,0 9,7 7 4 NNW 1014,4
27.05.2017 01:00:00 19,1 9,7 7 4 N 1014,5
27.05.2017 00:00:00 19,2 9,9 7 4 N 1014,3
26.05.2017 23:00:00 20,0 9,5 4 2 N 1013,9
26.05.2017 22:00:00 19,8 9,6 4 2 NE 1013,5
26.05.2017 21:00:00 21,4 9,7 4 2 N 1012,8
26.05.2017 20:00:00 23,9 9,1 4 2 N 1012,4
26.05.2017 19:00:00 25,1 9,5 4 2 E 1012,0
26.05.2017 18:00:00 25,6 9,9 7 4 NNE 1011,8
26.05.2017 17:00:00 25,3 10,0 4 2 N 1012,0
26.05.2017 16:00:00 25,2 9,8 7 4 N 1012,1
26.05.2017 15:00:00 24,0 9,5 4 2 NNE 1012,6
26.05.2017 14:00:00 25,0 9,2 7 4 ENE 1012,6
26.05.2017 13:00:00 23,5 8,0 7 4 NW 1012,6
26.05.2017 12:00:00 23,4 8,2 11 6 NNW 1012,7
26.05.2017 11:00:00 21,9 8,6 11 6 NW 1012,8
26.05.2017 10:00:00 20,3 10,1 4 2 NW 1013,0
26.05.2017 09:00:00 18,7 10,1 4 2 W 1013,1
26.05.2017 08:00:00 16,9 9,6 4 2 N 1012,9
26.05.2017 07:00:00 15,9 9,0 4 2 N 1012,6
26.05.2017 06:00:00 15,8 9,0 4 2 N 1012,6
26.05.2017 05:00:00 15,0 9,2 4 2 NNE 1012,4
26.05.2017 04:00:00 15,5 9,0 7 4 N 1012,5
26.05.2017 03:00:00 15,7 9,2 4 2 N 1012,5
26.05.2017 02:00:00 16,3 8,8 7 4 NNE 1012,9
26.05.2017 01:00:00 16,2 8,8 7 4 N 1013,2
26.05.2017 00:00:00 17,0 8,7 4 2 NW 1013,6
25.05.2017 23:00:00 16,8 8,9 4 2 N 1013,4
25.05.2017 22:00:00 16,5 9,9 0 0 ENE 1013,3
25.05.2017 21:00:00 17,2 9,8 4 2 N 1012,9
25.05.2017 20:00:00 17,7 10,8 4 2 NNE 1013,0
25.05.2017 19:00:00 18,1 10,0 4 2 WNW 1012,9
25.05.2017 18:00:00 17,8 10,6 0 0 E 1013,2
25.05.2017 17:00:00 17,1 11,0 4 2 SE 1013,5
25.05.2017 16:00:00 16,9 10,6 4 2 E 1013,9
25.05.2017 15:00:00 17,4 11,6 4 2 ESE 1014,0
25.05.2017 14:00:00 17,1 11,5 7 4 WNW 1014,2
25.05.2017 13:00:00 16,6 12,6 4 2 SE 1014,4
25.05.2017 12:00:00 16,0 14,4 4 2 WNW 1014,5
25.05.2017 11:00:00 14,7 14,5 4 2 N 1014,4
25.05.2017 10:00:00 16,0 15,5 0 0 ENE 1014,3
25.05.2017 09:00:00 16,0 14,1 7 4 NNW 1014,1
25.05.2017 08:00:00 16,0 13,4 7 4 NNW 1013,5
25.05.2017 07:00:00 15,6 13,6 4 2 NE 1013,5
25.05.2017 06:00:00 17,0 13,1 7 4 NNW 1013,3
25.05.2017 05:00:00 18,3 12,5 7 4 N 1012,9
25.05.2017 04:00:00 18,9 14,8 7 4 N 1012,9
25.05.2017 03:00:00 18,6 16,0 11 6 N 1012,8
25.05.2017 02:00:00 18,9 16,1 7 4 NNE 1012,8
25.05.2017 01:00:00 18,3 15,7 0 0 N 1013,3
25.05.2017 00:00:00 18,7 16,1 0 0 SSW 1013,5
24.05.2017 23:00:00 19,2 16,7 0 0 NNW 1014,0
24.05.2017 22:00:00 19,9 16,6 4 2 NW 1014,0
24.05.2017 21:00:00 19,5 16,2 4 2 ENE 1013,6
24.05.2017 20:00:00 20,7 16,2 4 2 WNW 1013,2
24.05.2017 19:00:00 20,7 16,9 4 2 SSW 1013,0
24.05.2017 18:00:00 20,9 16,9 4 2 W 1013,8
24.05.2017 17:00:00 20,5 16,7 11 6 NNW 1014,4
24.05.2017 16:00:00 20,9 16,1 11 6 NW 1014,8
24.05.2017 15:00:00 23,3 17,0 4 2 WNW 1014,1
24.05.2017 14:00:00 23,5 17,4 7 4 WNW 1014,2
24.05.2017 13:00:00 23,2 16,8 4 2 W 1014,8
24.05.2017 12:00:00 22,8 14,4 0 0 W 1015,5
24.05.2017 11:00:00 22,2 15,1 0 0 WSW 1015,4
24.05.2017 10:00:00 21,0 13,7 0 0 W 1015,5
24.05.2017 09:00:00 19,5 14,3 0 0 WNW 1015,5
24.05.2017 08:00:00 18,8 13,6 4 2 N 1015,2
24.05.2017 07:00:00 17,1 13,3 4 2 ENE 1015,2
24.05.2017 06:00:00 17,1 13,3 4 2 SSW 1014,8
24.05.2017 05:00:00 17,2 14,1 4 2 NNE 1015,0
24.05.2017 04:00:00 17,4 15,9 4 2 NNW 1015,1
24.05.2017 03:00:00 17,5 16,1 4 2 N 1015,1
24.05.2017 02:00:00 17,7 16,0 0 0 NNE 1015,3
24.05.2017 01:00:00 18,3 16,2 4 2 NE 1015,7
24.05.2017 00:00:00 18,6 16,0 4 2 NE 1015,6
23.05.2017 23:00:00 19,0 15,9 4 2 NE 1015,4
23.05.2017 22:00:00 19,7 15,7 4 2 NE 1015,1
23.05.2017 21:00:00 20,8 16,0 4 2 W 1014,6
23.05.2017 20:00:00 21,9 17,4 4 2 W 1014,0
23.05.2017 19:00:00 23,4 17,1 0 0 SSW 1013,7
23.05.2017 18:00:00 22,9 17,2 0 0 WSW 1013,6
23.05.2017 17:00:00 22,7 16,5 4 2 WNW 1013,9
23.05.2017 16:00:00 22,8 17,4 4 2 W 1014,3
23.05.2017 15:00:00 24,8 15,4 4 2 W 1013,7
23.05.2017 14:00:00 28,4 14,6 4 2 SE 1014,3
23.05.2017 13:00:00 27,6 14,6 4 2 S 1014,5
23.05.2017 12:00:00 23,9 16,3 0 0 SW 1014,9
23.05.2017 11:00:00 21,5 16,9 0 0 WSW 1015,1
23.05.2017 10:00:00 20,4 15,5 0 0 WNW 1015,1
23.05.2017 09:00:00 18,5 16,5 0 0 N 1015,3
23.05.2017 08:00:00 17,3 16,2 0 0 WNW 1015,1
23.05.2017 07:00:00 16,7 15,7 0 0 S 1014,6
23.05.2017 06:00:00 16,7 15,5 0 0 SW 1014,2
23.05.2017 05:00:00 16,9 15,5 0 0 NW 1013,6
23.05.2017 04:00:00 16,9 16,0 0 0 SSW 1013,5
23.05.2017 03:00:00 17,0 15,8 0 0 NW 1013,7
23.05.2017 02:00:00 17,4 16,0 0 0 N 1014,0
23.05.2017 01:00:00 17,8 15,9 0 0 WSW 1014,2
23.05.2017 00:00:00 18,6 15,9 0 0 NNE 1014,3
22.05.2017 23:00:00 19,2 16,2 0 0 E 1014,3
22.05.2017 22:00:00 20,0 16,0 4 2 N 1014,3
22.05.2017 21:00:00 20,7 15,9 4 2 NW 1013,8
22.05.2017 20:00:00 21,8 16,3 7 4 NW 1013,4

tt = temperature
td = dewpoint
ff = wind speed
dd = wind direction
ppp = reduced air pressure

Next stations